Location: Newark
(48.4472°N, 1.4892°E)
Time: 10:30:51
(UTC+00:00)

Transit 4A - Pass Details

Date: 21 January 2021
Orbit: 866 x 978 km, 66.8° (Epoch: 26 February)

Event Time Altitude Azimuth Distance (km) Brightness Sun altitude
Rises 20:43:24 0° 234° (SW) 3,668 11.4 -40.5°
Reaches altitude 10° 20:46:03 10° 240° (WSW) 2,726 10.7 -40.9°
Enters shadow 20:48:31 24° 251° (WSW) 1,926 9.8 -41.3°
